Red Oak, IA

11:38 PM CDT on August 26, 2016 (GMT -0500)
Red Oak Municipal

Weather History for KRDK - December, 2013

Change the Weather History Date:

Sunday, December 29, 2013

  Actual Average Record
Temperature  
Mean Temperature 10 °F -  
Max Temperature 17 °F 33 °F 60 °F (1984)
Min Temperature 3 °F 14 °F -7 °F (1990)
Degree Days  
Heating Degree Days 55    
Moisture  
Dew Point -3 °F    
Average Humidity 57    
Maximum Humidity 79    
Minimum Humidity 29    
Precipitation  
Precipitation 0.00 in - - ()
Sea Level Pressure  
Sea Level Pressure 30.27 in    
Wind  
Wind Speed 19 mph (NNW)    
Max Wind Speed 26 mph    
Max Gust Speed 41 mph    
Visibility 10 miles    
Events Snow    
Averages and records for this station are not official NWS values.
T = Trace of Precipitation, MM = Missing Value Source: NWS Daily Summary

Daily Weather History Graph

Daily Weather History Graph

Search for Another Location

Airport or City:

Trip Planner

Search our weather history database for the weather conditions in past years. The results will help you decide how hot, cold, wet, or windy it might be!

Date:

Astronomy

Dec. 29, 2013 Rise Set
Actual Time 7:45 AM CST 5:01 PM CST
Civil Twilight 7:14 AM CST 5:32 PM CST
Nautical Twilight 6:39 AM CST 6:06 PM CST
Astronomical Twilight 6:06 AM CST 6:40 PM CST
Moon 4:29 AM CST (12/29) 2:40 PM CST (12/29)
Length of Visible Light 10h 17m
Length of Day
9h 15m
Waning Crescent, 11% of the Moon is Illuminated
Dec 29
Waning Crescent
Jan 1
New
Jan 7
First Quarter
Jan 15
Full
Jan 23
Last Quarter

Hourly Weather History & Observations

Time (CST) Temp. Windchill Dew Point Humidity Pressure Visibility Wind Dir Wind Speed Gust Speed Precip Events Conditions
12:15 AM 17.6 °F -0.3 °F 10.4 °F 73% 30.08 in 10.0 mi NNW 24.2 mph 40.3 mph N/A Snow Light Snow
12:35 AM 17.6 °F -0.6 °F 10.4 °F 73% 30.08 in 10.0 mi NW 25.3 mph 35.7 mph N/A Snow Light Snow
12:55 AM 15.8 °F -3.4 °F 8.6 °F 73% 30.09 in 10.0 mi NNW 26.5 mph 41.4 mph N/A Snow Light Snow
1:35 AM 14.0 °F -2.5 °F 6.8 °F 73% 30.11 in 10.0 mi NNW 17.3 mph 27.6 mph N/A   Overcast
1:55 AM 12.2 °F -7.1 °F 5.0 °F 73% 30.12 in 10.0 mi NNW 23.0 mph 32.2 mph N/A Snow Light Snow
2:15 AM 12.2 °F -6.7 °F 5.0 °F 73% 30.13 in 10.0 mi NNW 21.9 mph 35.7 mph N/A Snow Light Snow
2:35 AM 12.2 °F -6.7 °F 5.0 °F 73% 30.14 in 10.0 mi NNW 21.9 mph 31.1 mph N/A   Unknown
3:15 AM 12.2 °F -6.7 °F 5.0 °F 73% 30.16 in 10.0 mi NNW 21.9 mph - N/A   Overcast
3:35 AM 10.4 °F -7.2 °F 3.2 °F 73% 30.17 in 10.0 mi NNW 17.3 mph 31.1 mph N/A Snow Light Snow
3:55 AM 10.4 °F -8.6 °F 3.2 °F 73% 30.17 in 10.0 mi North 20.7 mph 31.1 mph N/A Snow Light Snow
4:55 AM 10.4 °F -6.6 °F 5.0 °F 79% 30.20 in 10.0 mi NNW 16.1 mph 28.8 mph N/A Snow Light Snow
5:15 AM 10.4 °F -7.7 °F 3.2 °F 73% 30.21 in 10.0 mi NNW 18.4 mph 25.3 mph N/A   Overcast
5:35 AM 10.4 °F -5.4 °F 3.2 °F 73% 30.23 in 10.0 mi NNW 13.8 mph 27.6 mph N/A Snow Light Snow
5:55 AM 10.4 °F -8.6 °F 3.2 °F 73% 30.23 in 10.0 mi NNW 20.7 mph 26.5 mph N/A Snow Light Snow
6:15 AM 10.4 °F -7.2 °F 3.2 °F 73% 30.24 in 10.0 mi NNW 17.3 mph 25.3 mph N/A   Unknown
6:35 AM 8.6 °F -9.5 °F 1.4 °F 73% 30.27 in 10.0 mi NNW 17.3 mph 26.5 mph N/A Snow Light Snow
6:55 AM 6.8 °F -14.7 °F -0.4 °F 72% 30.27 in 10.0 mi NNW 24.2 mph - N/A Snow Light Snow
7:15 AM 6.8 °F -13.4 °F -0.4 °F 72% 30.27 in 10.0 mi NNW 20.7 mph 27.6 mph N/A   Mostly Cloudy
7:35 AM 6.8 °F -13.4 °F -2.2 °F 67% 30.29 in 10.0 mi NNW 20.7 mph 28.8 mph N/A   Unknown
7:55 AM 6.8 °F -13.8 °F -2.2 °F 67% 30.30 in 10.0 mi North 21.9 mph - N/A Snow Light Snow
8:15 AM 6.8 °F -13.4 °F -2.2 °F 67% 30.30 in 10.0 mi North 20.7 mph 29.9 mph N/A Snow Light Snow
8:35 AM 6.8 °F -11.8 °F -2.2 °F 67% 30.32 in 10.0 mi NNW 17.3 mph - N/A   Clear
9:15 AM 5.0 °F -14.2 °F -5.8 °F 61% 30.33 in 10.0 mi NNW 17.3 mph 27.6 mph N/A Snow Light Snow
9:35 AM 6.8 °F -12.4 °F -7.6 °F 52% 30.33 in 10.0 mi NNW 18.4 mph 26.5 mph N/A Snow Light Snow
9:55 AM 6.8 °F -11.3 °F -7.6 °F 52% 30.35 in 10.0 mi NNW 16.1 mph 24.2 mph N/A   Clear
10:35 AM 8.6 °F -9.5 °F -7.6 °F 48% 30.35 in 10.0 mi NNW 17.3 mph 25.3 mph N/A   Clear
11:15 AM 10.4 °F -7.7 °F -9.4 °F 41% 30.35 in 10.0 mi NNW 18.4 mph 25.3 mph N/A Snow Light Snow
12:15 PM 10.4 °F -6.6 °F -9.4 °F 41% 30.34 in 10.0 mi NNW 16.1 mph 24.2 mph N/A   Clear
12:55 PM 12.2 °F -4.3 °F -9.4 °F 38% 30.32 in 10.0 mi NNW 16.1 mph 25.3 mph N/A   Clear
1:15 PM 12.2 °F -4.3 °F -9.4 °F 38% 30.32 in 10.0 mi NNW 16.1 mph 24.2 mph N/A Snow Light Snow
1:35 PM 12.2 °F -4.8 °F -9.4 °F 38% 30.32 in 10.0 mi NNW 17.3 mph 24.2 mph N/A Snow Light Snow
1:55 PM 14.0 °F -2.0 °F -9.4 °F 35% 30.31 in 10.0 mi NNW 16.1 mph 24.2 mph N/A   Clear
2:15 PM 14.0 °F -2.5 °F -11.2 °F 32% 30.32 in 10.0 mi NNW 17.3 mph - N/A   Clear
2:35 PM 14.0 °F -2.0 °F -11.2 °F 32% 30.31 in 10.0 mi NNW 16.1 mph 25.3 mph N/A   Clear
3:15 PM 14.0 °F -0.8 °F -11.2 °F 32% 30.32 in 10.0 mi NNW 13.8 mph 20.7 mph N/A   Clear
3:35 PM 14.0 °F -0.2 °F -11.2 °F 32% 30.32 in 10.0 mi NNW 12.7 mph 19.6 mph N/A   Clear
3:55 PM 14.0 °F -0.8 °F -13.0 °F 29% 30.33 in 10.0 mi NNW 13.8 mph 20.7 mph N/A   Clear
4:15 PM 14.0 °F -0.8 °F -13.0 °F 29% 30.33 in 10.0 mi NNW 13.8 mph 19.6 mph N/A   Clear
4:55 PM 12.2 °F -1.0 °F -13.0 °F 32% 30.34 in 10.0 mi NNW 10.4 mph 16.1 mph N/A   Clear
6:55 PM 6.8 °F -5.9 °F -7.6 °F 52% 30.32 in 10.0 mi NW 8.1 mph - N/A   Clear
7:35 PM 5.0 °F -4.1 °F -7.6 °F 56% 30.33 in 10.0 mi WNW 4.6 mph - N/A   Unknown
7:55 PM 5.0 °F -4.1 °F -5.8 °F 61% 30.33 in 10.0 mi WNW 4.6 mph - N/A   Clear
8:35 PM 6.8 °F -6.9 °F -9.4 °F 48% 30.33 in 10.0 mi NNW 9.2 mph - N/A   Clear
9:15 PM 6.8 °F -4.8 °F -9.4 °F 48% 30.32 in 10.0 mi NNW 6.9 mph - N/A   Clear
9:35 PM 5.0 °F -5.6 °F -9.4 °F 52% 30.32 in 10.0 mi North 5.8 mph - N/A   Clear
10:15 PM 3.2 °F -4.2 °F -7.6 °F 61% 30.31 in 10.0 mi NNE 3.5 mph - N/A   Unknown
10:55 PM 3.2 °F -4.2 °F -5.8 °F 66% 30.30 in 10.0 mi North 3.5 mph - N/A   Unknown
11:35 PM 3.2 °F - -5.8 °F 66% 30.31 in 10.0 mi Calm Calm - N/A   Clear